Terug naar catalogus

INTELSAT 4-F2

ActiefCommunicatieGEO
NORAD 4881·PAYLOAD· XX

Gelanceerd Jan 26, 1971 vanaf Cape Canaveral Space Force Station

Loading…

TLE

VersSource: Space-Track

Epoch: Sep 14, 2026, 10:13 UTC

1 04881U 71006A   26257.42605784 -.00000233  00000-0  00000-0 0  9992
2 04881   4.1196 275.2700 0011066  99.9132  98.4465  0.98839510122389

Volg INTELSAT 4-F2 in realtime met AllMySat

Download on the App Store